Location: Mascot Post Office (historical)
(40.2645°N, 99.5462°W)
Time: 02:42:53
(UTC+00:00)

ADEOS II - Pass Details

Date: 14 July 2020
Orbit: 799 x 801 km, 98.5° (Epoch: 14 August)

Event Time Altitude Azimuth Distance (km) Brightness Sun altitude
Rises 08:03:26 0° 26° (NNE) 3,317 6.7 -25.5°
Reaches altitude 10° 08:06:11 10° 39° (NE) 2,382 5.5 -25.3°
Maximum altitude 08:10:30 26° 95° (E) 1,549 3.7 -25.0°
Enters shadow 08:12:22 21° 126° (SE) 1,730 3.7 -24.8°
